Location: Bakov nad Jizerou
(50.4784°N, 14.9394°E)
Time: 12:05:30
(UTC+00:00)

Cosmos 2237 Rocket - Visible Passes

Search period start: 22 October 2021 00:00
Search period end: 01 November 2021 00:00
Orbit: 833 x 851 km, 71.0° (Epoch: 21 October)

Date Brightness Start Highest point End Pass type
(mag) Time Alt. Az. Time Alt. Az. Time Alt. Az.
22 Oct 4.9 02:14:14 10° N 02:15:39 11° NNE 02:17:04 10° NNE visible
22 Oct 4.1 03:57:02 10° NNW 04:01:52 27° NE 04:06:39 10° E visible
23 Oct 4.9 01:59:26 10° N 02:00:42 11° NNE 02:01:58 10° NNE visible
23 Oct 4.1 03:42:10 10° NNW 03:46:57 26° NE 03:51:41 10° E visible
24 Oct 5.0 01:44:39 10° N 01:45:45 10° NNE 01:46:51 10° NNE visible
24 Oct 4.2 03:27:19 10° NNW 03:32:02 26° NE 03:36:43 10° E visible
25 Oct 5.0 01:29:54 10° N 01:30:48 10° NNE 01:31:42 10° NNE visible
25 Oct 4.2 03:12:28 10° NNW 03:17:07 25° NE 03:21:44 10° E visible
25 Oct 2.2 04:56:10 10° NNW 05:01:54 83° WSW 05:07:33 10° SSE visible
26 Oct 5.0 01:15:11 10° N 01:15:51 10° NNE 01:16:31 10° NNE visible
26 Oct 4.2 02:57:36 10° NNW 03:02:12 24° NE 03:06:46 10° E visible
26 Oct 2.2 04:41:17 10° NNW 04:47:01 86° WSW 04:52:41 10° SSE visible
27 Oct 5.0 01:00:36 10° N 01:00:54 10° NNE 01:01:12 10° NNE visible
27 Oct 4.3 02:42:44 10° NNW 02:47:17 24° NE 02:51:48 10° E visible
27 Oct 2.2 04:26:24 10° NNW 04:32:08 89° WSW 04:37:48 10° SSE visible
28 Oct 4.3 02:27:53 10° NNW 02:32:22 23° NE 02:36:49 10° E visible
28 Oct 2.2 04:11:31 10° NNW 04:17:15 88° ENE 04:22:55 10° SSE visible
29 Oct 4.3 02:13:39 12° N 02:17:27 22° NE 02:21:50 10° E visible
29 Oct 2.2 03:56:38 10° NNW 04:02:23 85° ENE 04:08:03 10° SSE visible
30 Oct 4.3 01:59:45 16° N 02:02:31 22° NE 02:06:50 10° E visible
30 Oct 2.2 03:41:46 10° NNW 03:47:30 82° ENE 03:53:10 10° SSE visible
30 Oct 4.1 18:37:42 10° SSW 18:39:07 18° SSW 18:39:07 18° SSW visible
31 Oct 4.4 01:46:01 19° NNE 01:47:36 21° NE 01:51:51 10° E visible
31 Oct 2.3 03:27:54 16° NNW 03:32:37 79° ENE 03:38:16 10° SSE visible
31 Oct 3.5 05:12:00 10° NW 05:16:01 20° W 05:20:00 10° SW visible
31 Oct 4.1 16:43:54 10° ESE 16:44:07 10° ESE 16:44:07 10° ESE visible
31 Oct 3.2 18:22:51 10° SSW 18:26:02 34° S 18:26:02 34° S visible
